Pagina principale
METAR-TAF:

METAR-TAF

Aeroporti :

Aeroporto di Padova

Padova, Italia

latitudine: 45-23-45N, longitudine: 11-50-53E, altezza: 13 m

Osservazione

Il bollettino è stato emesso 7 ore e 7 minuti fa, alle 06:00 UTC
Vento calmo
Temperature 4°C
Umidità 100%
Pressione 1022 hPa
Visibilità 10 km o più
nessuna nube inferiore a 1500 m e nessun cumulonembo

METAR: LIPU 260600Z 00000KT CAVOK 04/04 Q1022

Ora: 15:07 (13:07 UTC)


TAF: mancante

Osservazioni e previsioni meteorologiche di più di 4000 aeroporti (messaggi METAR e TAF).

Le stazioni disponibili sono rappresentate dai dischi gialli e rossi sulla carta.

Puntare il mouse per vedere il nome della stazione.

Clicca sopra per visualizzare le osservazioni e previsioni meteorologiche.

Per cambiare la mappa : fare clic sui pulsanti verdi con una croce nera per ingrandire, il pulsante verde con un trattino per diminuire, o sulla freccia verde per le mappe adiacenti.


METAR-TAF: